TimeHST,TemperatureF,Dew PointF,Humidity,Sea Level PressureIn,VisibilityMPH,Wind Direction,Wind SpeedMPH,Gust SpeedMPH,PrecipitationIn,Events,Conditions,WindDirDegrees,DateUTC
12:54 AM,62.1,55.0,78,30.02,10.0,NE,3.5,-,N/A,,Clear,50,2013-03-19 10:54:00
1:54 AM,60.1,54.0,80,30.00,10.0,Calm,Calm,-,N/A,,Clear,0,2013-03-19 11:54:00
2:54 AM,57.9,53.1,84,29.98,10.0,Calm,Calm,-,N/A,,Clear,0,2013-03-19 12:54:00
3:54 AM,55.9,52.0,87,29.98,10.0,Calm,Calm,-,N/A,,Clear,0,2013-03-19 13:54:00
4:54 AM,57.0,53.1,87,29.99,10.0,NNW,3.5,-,N/A,,Clear,330,2013-03-19 14:54:00
5:54 AM,55.9,52.0,87,30.00,10.0,Calm,Calm,-,N/A,,Clear,0,2013-03-19 15:54:00
6:54 AM,59.0,55.0,87,30.02,10.0,Calm,Calm,-,N/A,,Partly Cloudy,0,2013-03-19 16:54:00
7:54 AM,68.0,60.1,76,30.03,10.0,NNW,3.5,-,N/A,,Partly Cloudy,330,2013-03-19 17:54:00
8:54 AM,72.0,55.9,57,30.04,10.0,North,3.5,-,N/A,,Partly Cloudy,360,2013-03-19 18:54:00
9:54 AM,73.9,54.0,50,30.05,10.0,Calm,Calm,-,N/A,,Partly Cloudy,0,2013-03-19 19:54:00
10:54 AM,75.0,53.1,46,30.05,10.0,SSE,8.1,-,N/A,,Partly Cloudy,160,2013-03-19 20:54:00
11:54 AM,75.9,55.0,48,30.04,10.0,SSE,10.4,-,N/A,,Scattered Clouds,160,2013-03-19 21:54:00
12:54 PM,77.0,57.0,50,30.02,10.0,SSE,6.9,17.3,N/A,,Scattered Clouds,150,2013-03-19 22:54:00
1:54 PM,77.0,57.9,52,29.99,10.0,South,9.2,-,N/A,,Partly Cloudy,180,2013-03-19 23:54:00
2:54 PM,77.0,57.0,50,29.98,10.0,South,11.5,-,N/A,,Clear,170,2013-03-20 00:54:00
3:54 PM,75.9,61.0,60,29.98,10.0,South,13.8,19.6,N/A,,Partly Cloudy,170,2013-03-20 01:54:00
4:54 PM,75.0,59.0,57,29.99,10.0,South,8.1,-,N/A,,Clear,170,2013-03-20 02:54:00
5:54 PM,73.0,59.0,61,30.01,10.0,South,8.1,-,N/A,,Clear,170,2013-03-20 03:54:00
6:54 PM,71.1,60.1,68,30.02,10.0,South,3.5,-,N/A,,Clear,170,2013-03-20 04:54:00
7:54 PM,66.9,60.1,79,30.03,10.0,ENE,3.5,-,N/A,,Clear,60,2013-03-20 05:54:00
8:54 PM,66.0,60.1,81,30.05,10.0,ENE,3.5,-,N/A,,Clear,60,2013-03-20 06:54:00
9:54 PM,63.0,59.0,87,30.05,10.0,Calm,Calm,-,N/A,,Clear,0,2013-03-20 07:54:00
10:54 PM,63.0,57.9,84,30.06,10.0,NE,3.5,-,N/A,,Clear,50,2013-03-20 08:54:00
11:54 PM,66.0,59.0,78,30.04,10.0,ENE,3.5,-,N/A,,Mostly Cloudy,60,2013-03-20 09:54:00